Location: Arbon
(43.0005°N, 0.7472°E)
Time: 11:19:36
(UTC+00:00)

ASTEX 1 - Pass Details

Date: 22 April 2026
Orbit: 713 x 733 km, 92.7° (Epoch: 15 May)

Event Time Altitude Azimuth Distance (km) Brightness Sun altitude
Exits shadow 19:59:50 18° 128° (SE) 1,718 4.7 -12.8°
Maximum altitude 20:02:42 33° 76° (ENE) 1,205 4.2 -13.3°
Drops below altitude 10° 20:07:07 10° 13° (NNE) 2,237 6.2 -14.0°
Sets 20:09:35 0° 4° (N) 3,166 7.1 -14.4°
